Location: ??????????
(54.8537°N, 38.8755°E)
Time: 15:41:37
(UTC+00:00)

Transit 2A Rocket - All Passes

Search period start: 13 September 2024 00:00
Search period end: 23 September 2024 00:00
Orbit: 582 x 910 km, 66.7° (Epoch: 12 September)

Date Brightness Start Highest point End Pass type
(mag) Time Alt. Az. Time Alt. Az. Time Alt. Az.
13 Sep - 01:05:21 10° WNW 01:10:35 29° NNW 01:15:43 10° NE visible
13 Sep - 02:49:33 10° NW 02:54:48 29° NNE 02:59:52 10° ENE daylight
13 Sep - 04:32:35 10° NW 04:38:32 56° NE 04:44:05 10° ESE daylight
13 Sep - 06:15:25 10° NW 06:21:01 45° WSW 06:26:14 10° S daylight
13 Sep - 20:54:35 10° S 20:59:58 36° ESE 21:05:28 10° NE visible
13 Sep - 22:36:14 10° SW 22:42:15 69° NW 22:48:21 10° NE visible
14 Sep - 00:20:21 10° W 00:25:47 32° NNW 00:31:08 10° NE visible
14 Sep - 02:04:51 10° NW 02:09:58 27° N 02:14:56 10° ENE visible
14 Sep - 03:48:10 10° NW 03:53:56 43° NNE 03:59:22 10° ESE daylight
14 Sep - 05:30:55 10° NW 05:36:50 67° SW 05:42:18 10° SSE daylight
14 Sep - 07:14:55 10° WNW 07:18:16 16° WSW 07:21:29 10° SW daylight
14 Sep - 20:11:16 10° SSE 20:15:57 24° ESE 20:20:43 10° ENE visible
14 Sep - 21:51:48 10° SW 21:57:50 87° SE 22:03:58 10° NE visible
14 Sep - 23:35:23 10° W 23:41:02 38° NNW 23:46:38 10° NE visible
15 Sep - 01:20:01 10° WNW 01:25:06 27° N 01:30:04 10° NE visible
15 Sep - 03:03:42 10° NW 03:09:14 35° NNE 03:14:30 10° E daylight
15 Sep - 04:46:30 10° NW 04:52:31 87° NE 04:58:05 10° SE daylight
15 Sep - 06:29:45 10° WNW 06:34:23 25° WSW 06:38:44 10° SSW daylight
15 Sep - 19:28:37 10° SE 19:32:03 16° ESE 19:35:32 10° ENE visible
15 Sep - 21:07:36 10° SSW 21:13:31 63° SE 21:19:32 10° NE visible
15 Sep - 22:50:31 10° WSW 22:56:21 47° NNW 23:02:12 10° NE visible
16 Sep - 00:35:05 10° WNW 00:40:14 28° N 00:45:18 10° NE visible
16 Sep - 02:19:08 10° NW 02:24:28 30° NNE 02:29:33 10° ENE visible
16 Sep - 04:02:05 10° NW 04:08:04 64° NE 04:13:37 10° ESE daylight
16 Sep - 05:45:00 10° NW 05:50:21 37° WSW 05:55:21 10° S daylight
16 Sep - 20:23:42 10° S 20:29:18 43° ESE 20:35:01 10° NE visible
16 Sep - 22:05:46 10° WSW 22:11:46 61° NW 22:17:47 10° NE visible
16 Sep - 23:50:04 10° WNW 23:55:24 30° NNW 00:00:39 10° NE visible
17 Sep - 01:34:28 10° NW 01:39:37 28° N 01:44:35 10° ENE visible
17 Sep - 03:17:39 10° NW 03:23:29 48° NE 03:28:56 10° ESE daylight
17 Sep - 05:00:25 10° NW 05:06:12 56° WSW 05:11:32 10° SSE daylight
17 Sep - 06:45:04 10° WNW 06:47:25 13° W 06:49:44 10° SW daylight
17 Sep - 19:40:10 10° S 19:45:12 29° ESE 19:50:20 10° NE visible
17 Sep - 21:21:12 10° SW 21:27:16 82° NW 21:33:23 10° NE visible
17 Sep - 23:05:03 10° W 23:10:36 35° NNW 23:16:05 10° NE visible
18 Sep - 00:49:39 10° NW 00:54:44 26° N 00:59:40 10° ENE visible
18 Sep - 02:33:11 10° NW 02:38:47 38° NNE 02:44:05 10° E daylight
18 Sep - 04:15:55 10° NW 04:21:54 82° SW 04:27:24 10° SE daylight
18 Sep - 05:59:27 10° WNW 06:03:34 20° WSW 06:07:29 10° SSW daylight
18 Sep - 18:57:08 10° SSE 19:01:13 19° ESE 19:05:21 10° ENE visible
18 Sep - 20:36:52 10° SSW 20:42:52 73° SE 20:48:57 10° NE visible
18 Sep - 22:20:06 10° W 22:25:51 42° NNW 22:31:36 10° NE visible
19 Sep - 00:04:43 10° WNW 00:09:50 27° N 00:14:49 10° NE visible
19 Sep - 01:48:38 10° NW 01:54:01 32° NNE 01:59:08 10° E visible
19 Sep - 03:31:29 10° NW 03:37:29 73° NE 03:43:00 10° SE daylight
19 Sep - 05:14:31 10° NW 05:19:35 31° WSW 05:24:18 10° S daylight
19 Sep - 18:15:11 10° ESE 18:17:21 12° E 18:19:31 10° E visible
19 Sep - 19:52:47 10° SSW 19:58:34 51° ESE 20:04:26 10° NE visible
19 Sep - 21:35:15 10° WSW 21:41:12 54° NW 21:47:09 10° NE visible
19 Sep - 23:19:42 10° WNW 23:24:57 29° NNW 23:30:05 10° NE visible
20 Sep - 01:03:58 10° NW 01:09:10 28° NNE 01:14:09 10° ENE visible
20 Sep - 02:47:02 10° NW 02:52:55 54° NE 02:58:22 10° ESE daylight
20 Sep - 04:29:51 10° NW 04:35:27 47° WSW 04:40:38 10° SSE daylight
20 Sep - 19:09:03 10° S 19:14:24 34° ESE 19:19:49 10° NE visible
20 Sep - 20:50:34 10° SW 20:56:37 72° NW 21:02:43 10° NE visible
20 Sep - 22:34:39 10° W 22:40:05 32° NNW 22:45:27 10° NE visible
21 Sep - 00:19:11 10° NW 00:24:16 27° N 00:29:10 10° ENE visible
21 Sep - 02:02:34 10° NW 02:08:15 42° NNE 02:13:35 10° E visible
21 Sep - 03:45:18 10° NW 03:51:11 70° SW 03:56:36 10° SSE daylight
21 Sep - 05:29:10 10° WNW 05:32:39 17° WSW 05:35:59 10° SW daylight
21 Sep - 18:25:45 10° SSE 18:30:20 23° ESE 18:34:58 10° ENE visible
21 Sep - 20:06:05 10° SW 20:12:09 84° SE 20:18:15 10° NE visible
21 Sep - 21:49:37 10° W 21:55:18 39° NNW 22:00:54 10° NE visible
21 Sep - 23:34:16 10° WNW 23:39:21 26° N 23:44:15 10° NE visible
22 Sep - 01:18:01 10° NW 01:23:28 34° NNE 01:28:38 10° E visible
22 Sep - 03:00:48 10° NW 03:06:47 83° NE 03:12:17 10° SE daylight
22 Sep - 04:44:00 10° WNW 04:48:41 26° WSW 04:53:05 10° SSW daylight
22 Sep - 17:43:10 10° SE 17:46:22 15° ESE 17:49:36 10° ENE visible
22 Sep - 19:21:53 10° SSW 19:27:47 60° ESE 19:33:45 10° NE visible
22 Sep - 21:04:41 10° WSW 21:10:34 48° NW 21:16:25 10° NE visible
22 Sep - 22:49:15 10° WNW 22:54:25 28° N 22:59:27 10° NE visible
